DW1336 Weather Reports


time (UTC)temp
F
wind
direction
speed
knots
gust
knots
rain 1hr
in
rain 24hr
in
rain mn
in
humidity
%
barometer
mb
20260506182105 34 342 0.0 7.8 0.02 0.44 0.05 92 1023.0
20260506181604 33 298 0.0 7.8 0.02 0.44 0.05 92 1023.0
20260506181104 33 331 0.9 2.6 0.01 0.43 0.04 92 1023.0
20260506180604 33 355 0.9 4.3 0.04 0.43 0.04 92 1023.0
20260506180104 32 355 0.9 4.3 0.04 0.43 0.04 91 1022.9
20260506175604 33 355 0.9 2.6 0.04 0.43 0.04 92 1022.7
20260506175104 33 346 0.9 2.6 0.04 0.43 0.04 92 1022.7
20260506174605 33 347 0.9 2.6 0.04 0.43 0.04 92 1022.7
20260506174104 33 349 0.0 2.6 0.04 0.43 0.04 92 1022.6
20260506173604 33 355 0.0 1.7 0.03 0.42 0.03 92 1022.6
20260506173104 33 326 0.0 1.7 0.03 0.42 0.03 92 1022.6
20260506172604 33 313 0.0 1.7 0.03 0.42 0.03 92 1022.5
20260506171104 33 316 0.0 1.7 0.03 0.42 0.03 92 1022.3
20260506095105 32 347 0.0 0.0 0.00 0.39 0.00 94 1018.1
20260506094604 32 347 0.0 0.0 0.00 0.39 0.00 94 1018.0
20260506094104 32 347 0.0 0.0 0.00 0.39 0.00 94 1017.9
20260506093604 32 347 0.0 0.0 0.00 0.39 0.00 94 1017.9
20260506093104 32 347 0.0 0.0 0.00 0.39 0.00 94 1017.8
20260506092104 32 347 0.0 0.0 0.00 0.39 0.00 94 1017.7
20260506091604 32 347 0.0 0.0 0.00 0.39 0.00 94 1017.7
20260506090104 32 346 0.0 0.0 0.00 0.39 0.00 94 1017.7
20260506085604 32 346 0.0 0.0 0.00 0.39 0.00 94 1017.7
20260506085104 32 346 0.0 0.0 0.00 0.39 0.00 94 1017.7
20260506084604 32 346 0.0 0.0 0.00 0.39 0.00 94 1017.6
20260506084104 32 346 0.0 0.0 0.00 0.39 0.00 94 1017.6
20260506083604 32 345 0.0 0.0 0.00 0.39 0.00 94 1017.6
20260506082604 32 342 0.0 0.0 0.00 0.39 0.00 94 1017.6
20260506082104 32 340 0.0 0.0 0.00 0.39 0.00 94 1017.6
20260506081604 32 340 0.0 0.0 0.00 0.39 0.00 94 1017.6
20260506081104 32 339 0.0 0.0 0.00 0.39 0.00 94 1017.6
20260506080605 32 339 0.0 0.0 0.00 0.39 0.00 94 1017.6
20260506080104 32 339 0.0 0.0 0.00 0.39 0.00 94 1017.5
20260506073104 32 338 0.0 0.0 0.00 0.39 0.00 94 1017.3
20260506072604 32 338 0.0 0.0 0.00 0.39 0.00 94 1017.3
20260506072104 32 338 0.0 0.0 0.00 0.39 0.00 94 1017.3
20260506071604 32 338 0.0 0.0 0.00 0.39 0.00 94 1017.2
20260506071104 32 338 0.0 0.0 0.00 0.39 0.00 94 1017.1
20260506070604 32 338 0.0 0.0 0.00 0.39 0.00 94 1017.1
20260506070104 32 338 0.0 0.0 0.00 0.39 0.00 94 1017.0
20260506062104 33 325 0.0 0.0 0.00 0.39 0.00 94 1016.8
20260506061604 33 321 0.0 0.0 0.00 0.39 0.00 94 1016.6
20260506060604 33 321 0.0 0.0 0.00 0.39 0.00 94 1016.3
20260506060104 33 321 0.0 0.0 0.00 0.39 0.00 94 1016.3
20260506051104 33 313 0.0 0.0 0.00 0.39 0.39 94 1016.0
20260506050604 33 313 0.0 0.0 0.00 0.39 0.39 94 1015.9
20260506050105 33 313 0.0 0.0 0.00 0.39 0.39 94 1015.8
20260506045105 33 312 0.0 0.0 0.00 0.39 0.39 94 1015.7
20260506044605 33 317 0.0 0.0 0.00 0.39 0.39 94 1015.6
20260506044104 33 317 0.0 0.0 0.00 0.39 0.39 94 1015.8
20260506043604 33 317 0.0 0.0 0.00 0.40 0.39 94 1015.8
20260506043105 33 317 0.0 0.0 0.00 0.40 0.39 94 1015.8
20260506042604 33 317 0.0 0.0 0.01 0.40 0.39 94 1015.7
20260506041604 33 318 0.0 0.0 0.01 0.41 0.39 94 1015.6
20260506041105 33 319 0.0 0.0 0.01 0.41 0.39 94 1015.6
20260506040604 33 323 0.0 0.0 0.01 0.42 0.39 94 1015.3
20260506040104 33 323 0.0 0.0 0.01 0.43 0.39 94 1015.3
20260506035604 33 323 0.0 0.0 0.01 0.43 0.39 94 1015.4
20260506035104 33 323 0.0 1.7 0.01 0.44 0.39 94 1015.3
20260506034604 33 324 0.0 1.7 0.01 0.45 0.39 94 1015.3
20260506034104 33 343 0.0 0.9 0.01 0.45 0.39 94 1015.2
20260506033604 33 304 0.0 0.0 0.01 0.46 0.39 94 1015.1
20260506032605 33 293 0.0 0.0 0.00 0.49 0.38 94 1015.0
20260506032105 33 308 0.0 0.0 0.00 0.52 0.38 94 1014.8
20260506031604 33 313 0.0 0.0 0.00 0.54 0.38 94 1014.6
20260506030605 33 300 0.0 0.0 0.00 0.54 0.38 94 1014.6
20260506025604 33 300 0.0 0.0 0.00 0.54 0.38 94 1014.4
20260506024104 33 337 0.0 0.9 0.00 0.54 0.38 94 1014.0
20260506023604 33 342 0.0 0.0 0.00 0.54 0.38 94 1014.0
20260506023104 33 322 0.0 0.0 0.00 0.54 0.38 94 1013.9
20260506022604 33 317 0.0 0.0 0.00 0.54 0.38 94 1013.9
20260506022104 33 327 0.0 1.7 0.01 0.54 0.38 94 1013.6
20260506021604 33 339 0.0 1.7 0.01 0.54 0.38 94 1013.3
20260506021104 33 337 0.0 0.0 0.01 0.54 0.38 94 1013.3
20260506020604 33 337 0.0 0.0 0.01 0.54 0.38 94 1012.9
20260506020104 33 337 0.0 1.7 0.01 0.54 0.38 94 1013.0
20260506015604 33 339 0.0 1.7 0.01 0.54 0.38 94 1013.1
20260506015104 33 342 0.0 1.7 0.01 0.54 0.38 94 1013.0
20260506014604 33 321 0.0 0.9 0.01 0.54 0.38 93 1012.9
20260506014104 33 327 0.0 0.9 0.01 0.54 0.38 93 1012.8
20260506013604 33 333 0.0 0.9 0.01 0.54 0.38 93 1012.7
20260506013104 33 330 0.0 0.0 0.01 0.54 0.38 93 1012.6
20260506012104 33 316 0.0 1.7 0.01 0.53 0.37 93 1012.6
20260506011604 33 314 0.0 1.7 0.01 0.53 0.37 93 1012.5
20260506010604 33 333 0.0 1.7 0.02 0.53 0.37 93 1012.3
20260506010104 33 288 0.0 1.7 0.02 0.53 0.37 93 1012.1
20260506005604 33 353 0.0 1.7 0.02 0.53 0.37 93 1012.2
20260506005105 33 317 0.0 1.7 0.03 0.54 0.37 93 1012.1
20260506003605 33 320 0.0 2.6 0.03 0.54 0.37 93 1012.0
20260506003104 33 346 0.0 1.7 0.03 0.54 0.37 93 1011.8
20260506002604 34 316 0.0 1.7 0.03 0.54 0.37 93 1011.8
20260506002104 34 341 0.0 1.7 0.02 0.53 0.36 93 1011.7
20260506001104 33 345 0.0 2.6 0.02 0.53 0.36 93 1011.4
20260506000604 33 330 0.9 2.6 0.02 0.52 0.35 93 1011.4
20260506000104 33 339 0.0 1.7 0.02 0.52 0.35 93 1011.3
20260505235604 33 337 0.0 2.6 0.02 0.52 0.35 93 1011.3
20260505235104 33 336 0.0 2.6 0.01 0.51 0.34 93 1011.2
20260505234604 33 351 0.0 1.7 0.01 0.51 0.34 93 1011.0
20260505234104 33 317 0.0 1.7 0.02 0.51 0.34 93 1010.8
20260505233104 34 336 0.0 1.7 0.03 0.51 0.34 93 1010.9
20260505232104 34 332 0.0 2.6 0.05 0.51 0.34 93 1011.0
20260505231604 34 322 0.9 2.6 0.05 0.51 0.34 93 1010.6
20260505231104 34 337 0.9 2.6 0.07 0.51 0.34 93 1010.4
20260505230604 34 325 0.0 2.6 0.06 0.50 0.33 92 1009.9
20260505230104 34 334 0.0 2.6 0.07 0.50 0.33 92 1009.8
20260505225604 35 342 0.0 1.7 0.08 0.50 0.33 93 1010.2
20260505225104 35 260 0.0 0.0 0.09 0.50 0.33 93 1010.4
20260505224604 35 232 0.0 0.0 0.10 0.50 0.33 93 1010.2
20260505224104 35 232 0.0 0.0 0.09 0.49 0.32 93 1009.7
20260505222604 34 222 0.0 1.7 0.08 0.47 0.30 92 1009.2
20260505222104 35 221 0.0 1.7 0.07 0.46 0.29 92 1009.1
20260505220604 35 160 0.0 1.7 0.05 0.44 0.27 92 1008.7
20260505220104 36 224 0.0 1.7 0.05 0.43 0.26 92 1008.4
20260505215604 36 216 0.9 2.6 0.04 0.42 0.25 92 1008.4
20260505215104 37 182 0.0 2.6 0.04 0.41 0.24 92 1008.4
20260505214605 37 200 0.0 2.6 0.04 0.40 0.23 92 1008.5
20260505214104 37 169 0.0 2.6 0.04 0.40 0.23 92 1008.5
20260505213604 37 187 0.9 2.6 0.04 0.40 0.23 91 1008.5
20260505213104 37 163 0.0 4.3 0.03 0.39 0.22 91 1008.5
20260505212605 38 145 1.7 4.3 0.03 0.39 0.22 91 1008.4
20260505212104 38 209 0.9 2.6 0.03 0.39 0.22 91 1008.4
20260505211604 39 218 0.9 4.3 0.03 0.39 0.22 91 1008.4
20260505210604 39 220 0.0 2.6 0.03 0.39 0.22 91 1008.3
20260505205604 39 214 1.7 4.3 0.03 0.38 0.21 89 1008.3
20260505205104 40 226 0.9 2.6 0.03 0.37 0.20 89 1008.4
20260505204604 40 229 0.9 2.6 0.02 0.36 0.19 89 1008.5
20260505204104 40 234 1.7 6.1 0.02 0.36 0.19 88 1008.6
20260505203604 41 233 0.9 6.1 0.02 0.36 0.19 89 1008.8
20260505203104 41 203 0.9 2.6 0.02 0.36 0.19 90 1008.9
20260505202604 41 234 0.9 2.6 0.03 0.36 0.19 91 1008.8
20260505202104 40 201 0.0 1.7 0.03 0.36 0.19 91 1008.8
20260505201604 40 139 0.0 1.7 0.03 0.36 0.19 91 1008.7
20260505201104 40 163 0.0 2.6 0.03 0.36 0.19 90 1008.8
20260505200604 40 182 0.0 4.3 0.03 0.36 0.19 91 1008.7
20260505200104 39 203 0.9 4.3 0.02 0.35 0.18 90 1008.6
20260505195604 39 169 0.0 1.7 0.02 0.35 0.18 90 1008.6
20260505195104 40 161 0.0 0.9 0.01 0.34 0.17 91 1008.5
20260505194605 39 167 0.0 1.7 0.01 0.34 0.17 90 1008.5
20260505194104 40 114 0.0 1.7 0.01 0.34 0.17 90 1008.5
20260505192605 40 62 0.0 1.7 0.01 0.33 0.16 90 1008.4
20260505192104 40 1 0.0 1.7 0.01 0.33 0.16 91 1008.4
20260505191604 40 321 0.0 0.9 0.02 0.33 0.16 92 1008.4
20260505191104 40 10 0.0 0.9 0.02 0.33 0.16 92 1008.5
20260505190105 39 333 0.0 1.7 0.02 0.33 0.16 92 1008.4
20260505185604 39 355 0.0 2.6 0.02 0.33 0.16 92 1008.4
20260505185104 39 16 1.7 2.6 0.03 0.33 0.16 91 1008.5
20260505184604 39 7 0.0 1.7 0.03 0.33 0.16 92 1008.5
20260505184105 39 13 0.0 1.7 0.03 0.33 0.16 92 1008.6
20260505183604 39 326 0.9 1.7 0.02 0.32 0.15 92 1008.7
20260505183104 39 340 0.0 1.7 0.02 0.32 0.15 92 1008.7
20260505182604 38 5 0.0 1.7 0.03 0.32 0.15 92 1008.7